Time,TemperatureF,DewpointF,PressureIn,WindDirection,WindDirectionDegrees,WindSpeedMPH,WindSpeedGustMPH,Humidity,HourlyPrecipIn,Conditions,Clouds,dailyrainin,SolarRadiationWatts/m^2,SoftwareType,DateUTC
2013-01-19 00:02:00,9.0,6.0,-100.00,North,-999,-999.0,6.0,87,0.00,,,-99.99,0.000000,,2013-01-19 07:02:00,
2013-01-19 00:11:00,6.0,3.0,-100.00,North,-999,-999.0,6.0,89,0.00,,,-99.99,0.000000,,2013-01-19 07:11:00,
2013-01-19 00:22:00,3.0,0.0,-100.00,North,-999,-999.0,4.0,87,0.00,,,-99.99,0.000000,,2013-01-19 07:22:00,
2013-01-19 00:32:00,3.0,1.0,-100.00,North,-999,-999.0,4.0,90,0.00,,,-99.99,0.000000,,2013-01-19 07:32:00,
2013-01-19 00:42:00,4.0,1.0,-100.00,North,-999,-999.0,6.0,88,0.00,,,-99.99,0.000000,,2013-01-19 07:42:00,
2013-01-19 00:52:00,8.0,6.0,-100.00,North,-999,-999.0,9.0,94,0.00,,,-99.99,0.000000,,2013-01-19 07:52:00,
2013-01-19 01:02:00,4.0,1.0,-100.00,North,-999,-999.0,9.0,85,0.00,,,-99.99,0.000000,,2013-01-19 08:02:00,
2013-01-19 01:12:00,6.0,4.0,-100.00,North,-999,-999.0,7.0,91,0.00,,,-99.99,0.000000,,2013-01-19 08:12:00,
2013-01-19 01:22:00,7.0,5.0,-100.00,North,-999,-999.0,5.0,91,0.00,,,-99.99,0.000000,,2013-01-19 08:22:00,
2013-01-19 01:32:00,7.0,4.0,-100.00,North,-999,-999.0,5.0,87,0.00,,,-99.99,0.000000,,2013-01-19 08:32:00,
2013-01-19 01:42:00,4.0,1.0,-100.00,North,-999,-999.0,6.0,88,0.00,,,-99.99,0.000000,,2013-01-19 08:42:00,
2013-01-19 01:52:00,5.0,3.0,-100.00,North,-999,-999.0,4.0,90,0.00,,,-99.99,0.000000,,2013-01-19 08:52:00,
2013-01-19 02:02:00,6.0,3.0,-100.00,North,-999,-999.0,5.0,89,0.00,,,-99.99,0.000000,,2013-01-19 09:02:00,
2013-01-19 02:12:00,4.0,1.0,-100.00,North,-999,-999.0,5.0,89,0.00,,,-99.99,0.000000,,2013-01-19 09:12:00,
2013-01-19 02:22:00,4.0,2.0,-100.00,North,-999,-999.0,4.0,90,0.00,,,-99.99,0.000000,,2013-01-19 09:22:00,
2013-01-19 02:32:00,4.0,1.0,-100.00,North,-999,-999.0,5.0,89,0.00,,,-99.99,0.000000,,2013-01-19 09:32:00,
2013-01-19 02:42:00,5.0,2.0,-100.00,North,-999,-999.0,5.0,89,0.00,,,-99.99,0.000000,,2013-01-19 09:42:00,
2013-01-19 02:50:00,3.0,0.0,-100.00,North,-999,-999.0,3.0,88,0.00,,,-99.99,0.000000,,2013-01-19 09:50:00,
2013-01-19 02:52:00,4.0,1.0,-100.00,North,-999,-999.0,5.0,89,0.00,,,-99.99,0.000000,,2013-01-19 09:52:00,
2013-01-19 03:01:00,2.0,-1.0,-100.00,North,-999,-999.0,4.0,87,0.00,,,-99.99,0.000000,,2013-01-19 10:01:00,
2013-01-19 03:12:00,3.0,0.0,-100.00,North,-999,-999.0,3.0,88,0.00,,,-99.99,0.000000,,2013-01-19 10:12:00,
2013-01-19 03:22:00,3.0,0.0,-100.00,North,-999,-999.0,3.0,88,0.00,,,-99.99,0.000000,,2013-01-19 10:22:00,
2013-01-19 03:32:00,3.0,0.0,-100.00,North,-999,-999.0,3.0,88,0.00,,,-99.99,0.000000,,2013-01-19 10:32:00,
2013-01-19 03:42:00,3.0,0.0,-100.00,North,-999,-999.0,3.0,88,0.00,,,-99.99,0.000000,,2013-01-19 10:42:00,
2013-01-19 05:52:00,1.0,-2.0,-100.00,North,-999,-999.0,3.0,86,0.00,,,-99.99,0.000000,,2013-01-19 12:52:00,
2013-01-19 06:02:00,2.0,0.0,-100.00,North,-999,-999.0,4.0,90,0.00,,,-99.99,0.000000,,2013-01-19 13:02:00,
2013-01-19 06:12:00,3.0,1.0,-100.00,North,-999,-999.0,3.0,89,0.00,,,-99.99,0.000000,,2013-01-19 13:12:00,
2013-01-19 06:22:00,3.0,0.0,-100.00,North,-999,-999.0,5.0,88,0.00,,,-99.99,0.000000,,2013-01-19 13:22:00,
2013-01-19 06:33:00,3.0,0.0,-100.00,North,-999,-999.0,5.0,88,0.00,,,-99.99,0.000000,,2013-01-19 13:33:00,
2013-01-19 06:42:00,6.0,4.0,-100.00,North,-999,-999.0,6.0,90,0.00,,,-99.99,0.000000,,2013-01-19 13:42:00,
2013-01-19 06:52:00,4.0,1.0,-100.00,North,-999,-999.0,4.0,86,0.00,,,-99.99,0.000000,,2013-01-19 13:52:00,
2013-01-19 07:02:00,2.0,0.0,-100.00,North,-999,-999.0,4.0,88,0.00,,,-99.99,0.000000,,2013-01-19 14:02:00,
2013-01-19 07:12:00,4.0,1.0,-100.00,North,-999,-999.0,3.0,89,0.00,,,-99.99,0.000000,,2013-01-19 14:12:00,
2013-01-19 07:22:00,4.0,1.0,-100.00,North,-999,-999.0,3.0,88,0.00,,,-99.99,0.000000,,2013-01-19 14:22:00,
2013-01-19 07:33:00,4.0,1.0,-100.00,North,-999,-999.0,3.0,88,0.00,,,-99.99,0.000000,,2013-01-19 14:33:00,
2013-01-19 07:42:00,2.0,-1.0,-100.00,North,-999,-999.0,3.0,87,0.00,,,-99.99,0.000000,,2013-01-19 14:42:00,
2013-01-19 07:50:00,2.0,0.0,-100.00,North,-999,-999.0,4.0,88,0.00,,,-99.99,7.000000,,2013-01-19 14:50:00,
2013-01-19 07:52:00,1.0,-2.0,-100.00,North,-999,-999.0,3.0,87,0.00,,,-99.99,1.000000,,2013-01-19 14:52:00,
2013-01-19 08:02:00,2.0,0.0,-100.00,North,-999,-999.0,4.0,89,0.00,,,-99.99,4.000000,,2013-01-19 15:02:00,
2013-01-19 08:12:00,2.0,0.0,-100.00,North,-999,-999.0,4.0,88,0.00,,,-99.99,7.000000,,2013-01-19 15:12:00,
2013-01-19 08:22:00,2.0,0.0,-100.00,North,-999,-999.0,4.0,88,0.00,,,-99.99,7.000000,,2013-01-19 15:22:00,
2013-01-19 08:33:00,2.0,0.0,-100.00,North,-999,-999.0,4.0,88,0.00,,,-99.99,7.000000,,2013-01-19 15:33:00,
2013-01-19 08:42:00,2.0,0.0,-100.00,North,-999,-999.0,4.0,88,0.00,,,-99.99,7.000000,,2013-01-19 15:42:00,
2013-01-19 09:23:00,4.0,1.0,-100.00,North,-999,-999.0,4.0,88,0.00,,,-99.99,142.000000,,2013-01-19 16:23:00,
2013-01-19 09:33:00,7.0,5.0,-100.00,North,-999,-999.0,3.0,91,0.00,,,-99.99,171.000000,,2013-01-19 16:33:00,
2013-01-19 09:43:00,8.0,6.0,-100.00,North,-999,-999.0,0.0,89,0.00,,,-99.99,199.000000,,2013-01-19 16:43:00,
2013-01-19 09:53:00,6.0,2.0,-100.00,North,-999,-999.0,4.0,85,0.00,,,-99.99,220.000000,,2013-01-19 16:53:00,
2013-01-19 10:02:00,5.0,2.0,-100.00,North,-999,-999.0,4.0,88,0.00,,,-99.99,246.000000,,2013-01-19 17:02:00,
2013-01-19 10:13:00,8.0,5.0,-100.00,North,-999,-999.0,2.0,86,0.00,,,-99.99,272.000000,,2013-01-19 17:13:00,
2013-01-19 10:23:00,11.0,9.0,-100.00,North,-999,-999.0,3.0,91,0.00,,,-99.99,299.000000,,2013-01-19 17:23:00,
2013-01-19 10:33:00,13.0,11.0,-100.00,North,-999,-999.0,0.0,91,0.00,,,-99.99,322.000000,,2013-01-19 17:33:00,
2013-01-19 10:43:00,13.0,11.0,-100.00,North,-999,-999.0,1.0,91,0.00,,,-99.99,345.000000,,2013-01-19 17:43:00,
2013-01-19 10:53:00,12.0,10.0,-100.00,North,-999,-999.0,2.0,89,0.00,,,-99.99,363.000000,,2013-01-19 17:53:00,
2013-01-19 11:04:00,12.0,8.0,-100.00,North,-999,-999.0,3.0,84,0.00,,,-99.99,383.000000,,2013-01-19 18:04:00,
2013-01-19 11:11:00,10.0,5.0,-100.00,North,-999,-999.0,4.0,81,0.00,,,-99.99,408.000000,,2013-01-19 18:11:00,
2013-01-19 11:23:00,9.0,5.0,-100.00,North,-999,-999.0,4.0,81,0.00,,,-99.99,419.000000,,2013-01-19 18:23:00,
2013-01-19 11:33:00,10.0,6.0,-100.00,North,-999,-999.0,4.0,82,0.00,,,-99.99,435.000000,,2013-01-19 18:33:00,
2013-01-19 11:43:00,13.0,8.0,-100.00,North,-999,-999.0,3.0,79,0.00,,,-99.99,454.000000,,2013-01-19 18:43:00,
2013-01-19 11:53:00,13.0,8.0,-100.00,North,-999,-999.0,3.0,79,0.00,,,-99.99,454.000000,,2013-01-19 18:53:00,
2013-01-19 12:04:00,14.0,6.0,-100.00,North,-999,-999.0,3.0,72,0.00,,,-99.99,476.000000,,2013-01-19 19:04:00,
2013-01-19 12:12:00,14.0,6.0,-100.00,North,-999,-999.0,4.0,71,0.00,,,-99.99,484.000000,,2013-01-19 19:12:00,
2013-01-19 12:22:00,14.0,7.0,-100.00,North,-999,-999.0,3.0,72,0.00,,,-99.99,491.000000,,2013-01-19 19:22:00,
2013-01-19 12:43:00,15.0,7.0,-100.00,North,-999,-999.0,3.0,69,0.00,,,-99.99,514.000000,,2013-01-19 19:43:00,
2013-01-19 12:50:00,18.0,7.0,-100.00,North,-999,-999.0,3.0,61,0.00,,,-99.99,601.000000,,2013-01-19 19:50:00,
2013-01-19 12:53:00,17.0,8.0,-100.00,North,-999,-999.0,3.0,67,0.00,,,-99.99,539.000000,,2013-01-19 19:53:00,
2013-01-19 13:04:00,20.0,7.0,-100.00,North,-999,-999.0,3.0,58,0.00,,,-99.99,572.000000,,2013-01-19 20:04:00,
2013-01-19 13:14:00,18.0,7.0,-100.00,North,-999,-999.0,3.0,61,0.00,,,-99.99,601.000000,,2013-01-19 20:14:00,
2013-01-19 13:22:00,18.0,7.0,-100.00,North,-999,-999.0,3.0,61,0.00,,,-99.99,601.000000,,2013-01-19 20:22:00,
2013-01-19 13:34:00,18.0,7.0,-100.00,North,-999,-999.0,3.0,61,0.00,,,-99.99,601.000000,,2013-01-19 20:34:00,
2013-01-19 14:47:00,20.0,8.0,-100.00,North,-999,-999.0,3.0,59,0.00,,,-99.99,537.000000,,2013-01-19 21:47:00,
2013-01-19 14:52:00,17.0,8.0,-100.00,North,-999,-999.0,5.0,65,0.00,,,-99.99,502.000000,,2013-01-19 21:52:00,
2013-01-19 14:58:00,17.0,8.0,-100.00,North,-999,-999.0,5.0,66,0.00,,,-99.99,479.000000,,2013-01-19 21:58:00,
2013-01-19 15:04:00,18.0,9.0,-100.00,North,-999,-999.0,4.0,66,0.00,,,-99.99,460.000000,,2013-01-19 22:04:00,
2013-01-19 15:14:00,19.0,8.0,-100.00,North,-999,-999.0,4.0,63,0.00,,,-99.99,435.000000,,2013-01-19 22:14:00,
2013-01-19 15:22:00,19.0,9.0,-100.00,North,-999,-999.0,4.0,64,0.00,,,-99.99,409.000000,,2013-01-19 22:22:00,
2013-01-19 15:33:00,18.0,9.0,-100.00,North,-999,-999.0,4.0,65,0.00,,,-99.99,381.000000,,2013-01-19 22:33:00,
2013-01-19 15:44:00,19.0,9.0,-100.00,North,-999,-999.0,4.0,66,0.00,,,-99.99,354.000000,,2013-01-19 22:44:00,
2013-01-19 15:53:00,19.0,10.0,-100.00,North,-999,-999.0,3.0,66,0.00,,,-99.99,320.000000,,2013-01-19 22:53:00,
2013-01-19 16:04:00,20.0,9.0,-100.00,North,-999,-999.0,2.0,62,0.00,,,-99.99,298.000000,,2013-01-19 23:04:00,
2013-01-19 16:12:00,21.0,9.0,-100.00,North,-999,-999.0,3.0,61,0.00,,,-99.99,267.000000,,2013-01-19 23:12:00,
2013-01-19 16:23:00,18.0,9.0,-100.00,North,-999,-999.0,4.0,65,0.00,,,-99.99,241.000000,,2013-01-19 23:23:00,
2013-01-19 16:33:00,17.0,9.0,-100.00,North,-999,-999.0,5.0,69,0.00,,,-99.99,211.000000,,2013-01-19 23:33:00,
2013-01-19 16:44:00,17.0,9.0,-100.00,North,-999,-999.0,4.0,68,0.00,,,-99.99,177.000000,,2013-01-19 23:44:00,
2013-01-19 16:54:00,18.0,9.0,-100.00,North,-999,-999.0,3.0,67,0.00,,,-99.99,128.000000,,2013-01-19 23:54:00,
2013-01-19 17:13:00,18.0,9.0,-100.00,North,-999,-999.0,0.0,67,0.00,,,-99.99,85.000000,,2013-01-20 00:13:00,
2013-01-19 17:22:00,17.0,8.0,-100.00,North,-999,-999.0,0.0,68,0.00,,,-99.99,58.000000,,2013-01-20 00:22:00,
2013-01-19 17:33:00,15.0,7.0,-100.00,North,-999,-999.0,2.0,70,0.00,,,-99.99,31.000000,,2013-01-20 00:33:00,
2013-01-19 17:44:00,13.0,6.0,-100.00,North,-999,-999.0,2.0,74,0.00,,,-99.99,13.000000,,2013-01-20 00:44:00,
2013-01-19 17:53:00,12.0,6.0,-100.00,North,-999,-999.0,4.0,78,0.00,,,-99.99,7.000000,,2013-01-20 00:53:00,
2013-01-19 18:03:00,11.0,6.0,-100.00,North,-999,-999.0,4.0,79,0.00,,,-99.99,3.000000,,2013-01-20 01:03:00,
2013-01-19 18:14:00,10.0,5.0,-100.00,North,-999,-999.0,2.0,81,0.00,,,-99.99,1.000000,,2013-01-20 01:14:00,
2013-01-19 18:22:00,10.0,5.0,-100.00,North,-999,-999.0,2.0,81,0.00,,,-99.99,1.000000,,2013-01-20 01:22:00,
2013-01-19 18:33:00,10.0,5.0,-100.00,North,-999,-999.0,2.0,81,0.00,,,-99.99,1.000000,,2013-01-20 01:33:00,
2013-01-19 18:43:00,10.0,5.0,-100.00,North,-999,-999.0,2.0,81,0.00,,,-99.99,1.000000,,2013-01-20 01:43:00,
2013-01-19 19:27:00,9.0,6.0,-100.00,North,-999,-999.0,4.0,88,0.00,,,-99.99,0.000000,,2013-01-20 02:27:00,
2013-01-19 19:38:00,8.0,5.0,-100.00,North,-999,-999.0,4.0,88,0.00,,,-99.99,0.000000,,2013-01-20 02:38:00,
2013-01-19 19:45:00,9.0,7.0,-100.00,North,-999,-999.0,4.0,90,0.00,,,-99.99,0.000000,,2013-01-20 02:45:00,
2013-01-19 20:04:00,8.0,6.0,-100.00,North,-999,-999.0,3.0,88,0.00,,,-99.99,0.000000,,2013-01-20 03:04:00,
2013-01-19 20:13:00,8.0,5.0,-100.00,North,-999,-999.0,2.0,88,0.00,,,-99.99,0.000000,,2013-01-20 03:13:00,
2013-01-19 20:22:00,8.0,5.0,-100.00,North,-999,-999.0,2.0,88,0.00,,,-99.99,0.000000,,2013-01-20 03:22:00,
2013-01-19 20:33:00,8.0,5.0,-100.00,North,-999,-999.0,1.0,89,0.00,,,-99.99,0.000000,,2013-01-20 03:33:00,
2013-01-19 20:44:00,8.0,5.0,-100.00,North,-999,-999.0,4.0,88,0.00,,,-99.99,0.000000,,2013-01-20 03:44:00,
2013-01-19 20:52:00,8.0,5.0,-100.00,North,-999,-999.0,4.0,88,0.00,,,-99.99,0.000000,,2013-01-20 03:52:00,
2013-01-19 21:03:00,8.0,6.0,-100.00,North,-999,-999.0,4.0,88,0.00,,,-99.99,0.000000,,2013-01-20 04:03:00,
2013-01-19 21:12:00,8.0,6.0,-100.00,North,-999,-999.0,3.0,89,0.00,,,-99.99,0.000000,,2013-01-20 04:12:00,
2013-01-19 21:22:00,7.0,5.0,-100.00,North,-999,-999.0,2.0,88,0.00,,,-99.99,0.000000,,2013-01-20 04:22:00,
2013-01-19 21:33:00,7.0,5.0,-100.00,North,-999,-999.0,2.0,88,0.00,,,-99.99,0.000000,,2013-01-20 04:33:00,
2013-01-19 21:43:00,9.0,6.0,-100.00,North,-999,-999.0,4.0,89,0.00,,,-99.99,0.000000,,2013-01-20 04:43:00,
2013-01-19 21:52:00,9.0,6.0,-100.00,North,-999,-999.0,4.0,89,0.00,,,-99.99,0.000000,,2013-01-20 04:52:00,
2013-01-19 22:02:00,9.0,6.0,-100.00,North,-999,-999.0,4.0,88,0.00,,,-99.99,0.000000,,2013-01-20 05:02:00,
2013-01-19 22:12:00,7.0,4.0,-100.00,North,-999,-999.0,3.0,87,0.00,,,-99.99,0.000000,,2013-01-20 05:12:00,
2013-01-19 22:22:00,8.0,6.0,-100.00,North,-999,-999.0,4.0,90,0.00,,,-99.99,0.000000,,2013-01-20 05:22:00,
2013-01-19 22:32:00,9.0,7.0,-100.00,North,-999,-999.0,4.0,89,0.00,,,-99.99,0.000000,,2013-01-20 05:32:00,
2013-01-19 22:42:00,8.0,5.0,-100.00,North,-999,-999.0,3.0,88,0.00,,,-99.99,0.000000,,2013-01-20 05:42:00,
2013-01-19 22:52:00,8.0,5.0,-100.00,North,-999,-999.0,0.0,88,0.00,,,-99.99,0.000000,,2013-01-20 05:52:00,
2013-01-19 23:02:00,9.0,6.0,-100.00,North,-999,-999.0,2.0,90,0.00,,,-99.99,0.000000,,2013-01-20 06:02:00,
2013-01-19 23:11:00,9.0,6.0,-100.00,North,-999,-999.0,3.0,88,0.00,,,-99.99,0.000000,,2013-01-20 06:11:00,
2013-01-19 23:22:00,9.0,6.0,-100.00,North,-999,-999.0,3.0,88,0.00,,,-99.99,0.000000,,2013-01-20 06:22:00,